sat.trackr.live / text

‹ back to catalog

STARLINK-31192

NORAD 58794 · 2024-012H

PAYLOAD ACTIVE UNKNOWN

§ Identity

Operator
Country
US
Launch date
2024-01-15
Launch site
AFETR
Launch vehicle
Mass (kg)
RCS (m²)

Purposes: comms

External: N2YO · Heavens-Above · Gunter

§ Orbital elements

Epoch: 2026-05-25T04:50:04.524000Z

Period
94.27 min
Inclination
42.9997°
Eccentricity
0.0001810
Mean motion
15.27572343 rev/d
Perigee alt
481.8 km
Apogee alt
484.3 km
Semi-major
6,861.2 km
B*
-3.1320e-5
RAAN
93.4676°
Arg perigee
178.1833°
Mean anomaly
181.9025°
Rev number
13,293

§ Raw data

STARLINK-311921 58794U 24012H   26145.20144125 -.00001124  00000+0 -31320-4 0  99912 58794  42.9997  93.4676 0001810 178.1833 181.9025 15.27572343132934

JSON: /api/v1/satellites/58794 · /tle

For live sub-satellite position, see the globe view (requires WebGL).

§ Visibility from observer

Set your observer location to see the next 7 days of passes ≥ 10°. The values pass through the URL so the page stays shareable.

No JS? Fill the form by hand. The geolocation button needs JavaScript.